Location: Doverdale
(52.2833°N, 2.2000°W)
Time: 03:33:10
(UTC+00:00)

Cosmos 1980 Rocket - Pass Details

Date: 10 March 2021
Orbit: 828 x 851 km, 71.0° (Epoch: 15 April)

Event Time Altitude Azimuth Distance (km) Brightness Sun altitude
Rises 22:22:23 0° 325° (NW) 3,429 6.4 -35.8°
Reaches altitude 10° 22:25:49 10° 346° (NNW) 2,491 5.3 -36.1°
Maximum altitude 22:29:26 17° 25° (NNE) 2,048 4.4 -36.4°
Enters shadow 22:29:34 17° 27° (NNE) 2,048 4.4 -36.4°
